Malatya, Turkey

6:48 AM +03 on May 30, 2017 (GMT +0300)
Erhac Air Base

Weather History for LTAT - December, 2013

Change the Weather History Date:

Thursday, December 12, 2013

  Actual Average Record
Temperature  
Mean Temperature 21 °F -  
Max Temperature 30 °F 40 °F 51 °F (2007)
Min Temperature 10 °F 29 °F 10 °F (2013)
Degree Days  
Heating Degree Days 44    
Moisture  
Dew Point 11 °F    
Average Humidity 56    
Maximum Humidity 85    
Minimum Humidity 43    
Precipitation  
Precipitation 0.00 in 0.06 in - ()
Sea Level Pressure  
Sea Level Pressure 29.83 in    
Wind  
Wind Speed 2 mph ()    
Max Wind Speed 5 mph    
Max Gust Speed -    
Visibility 6.2 miles    
Events      
Averages and records for this station are not official NWS values.
T = Trace of Precipitation, MM = Missing Value Source: Averaged Metar Reports

Daily Weather History Graph

Daily Weather History Graph

Search for Another Location

Airport or City:

Trip Planner

Search our weather history database for the weather conditions in past years. The results will help you decide how hot, cold, wet, or windy it might be!

Date:

Astronomy

Dec. 12, 2013 Rise Set
Actual Time 6:35 AM EET 4:07 PM EET
Civil Twilight 6:05 AM EET 4:36 PM EET
Nautical Twilight 5:32 AM EET 5:10 PM EET
Astronomical Twilight 5:00 AM EET 5:42 PM EET
Moon 12:59 PM EET (12/12) 1:39 AM EET (12/12)
Length of Visible Light 10h 31m
Length of Day
9h 31m
Waxing Gibbous, 78% of the Moon is Illuminated
Dec 12
Waxing Gibbous
Dec 17
Full
Dec 25
Last Quarter
Jan 1
New
Jan 8
First Quarter

Hourly Weather History & Observations

Time (EET) Temp. Windchill Dew Point Humidity Pressure Visibility Wind Dir Wind Speed Gust Speed Precip Events Conditions
12:20 AM 26.6 °F - 10.4 °F 51% 29.83 in - North - - N/A   Mostly Cloudy
12:50 AM 26.6 °F - 10.4 °F 51% 29.83 in - North - - N/A   Mostly Cloudy
1:20 AM 24.8 °F - 12.2 °F 59% 29.83 in - North - - N/A   Mostly Cloudy
1:50 AM 24.8 °F - 8.6 °F 50% 29.83 in - North - - N/A   Mostly Cloudy
2:20 AM 26.6 °F - 6.8 °F 43% 29.83 in - North - - N/A   Mostly Cloudy
2:50 AM 26.6 °F - 8.6 °F 47% 29.83 in - North - - N/A   Mostly Cloudy
3:20 AM 26.6 °F - 6.8 °F 43% 29.83 in - North - - N/A   Mostly Cloudy
3:50 AM 26.6 °F - 8.6 °F 47% 29.80 in - North - - N/A   Mostly Cloudy
4:20 AM 24.8 °F - 8.6 °F 50% 29.83 in - North - - N/A   Mostly Cloudy
4:50 AM 24.8 °F - 10.4 °F 54% 29.80 in - North - - N/A   Mostly Cloudy
5:20 AM 26.6 °F - 10.4 °F 51% 29.80 in - North - - N/A   Mostly Cloudy
5:50 AM 26.6 °F - 10.4 °F 51% 29.80 in - North - - N/A   Mostly Cloudy
6:20 AM 24.8 °F - 10.4 °F 54% 29.80 in - North - - N/A   Mostly Cloudy
6:50 AM 24.8 °F - 8.6 °F 50% 29.80 in - North - - N/A   Mostly Cloudy
7:20 AM 26.6 °F - 8.6 °F 47% 29.80 in - North - - N/A   Mostly Cloudy
7:50 AM 26.6 °F - 10.4 °F 51% 29.80 in - North - - N/A   Mostly Cloudy
8:20 AM 26.6 °F - 8.6 °F 47% 29.80 in - North - - N/A   Mostly Cloudy
8:50 AM 26.6 °F - 10.4 °F 51% 29.80 in - North - - N/A   Mostly Cloudy
9:20 AM 28.4 °F - 8.6 °F 43% 29.80 in - North - - N/A   Mostly Cloudy
9:50 AM 28.4 °F - 10.4 °F 47% 29.80 in - North - - N/A   Mostly Cloudy
10:20 AM 28.4 °F - 10.4 °F 47% 29.80 in - North - - N/A   Mostly Cloudy
10:50 AM 30.2 °F - 10.4 °F 44% 29.77 in - North - - N/A   Mostly Cloudy
11:20 AM 28.4 °F - 8.6 °F 43% 29.77 in - North - - N/A   Mostly Cloudy
11:50 AM 30.2 °F - 12.2 °F 47% 29.77 in - North - - N/A   Mostly Cloudy
12:20 PM 30.2 °F - 15.8 °F 55% 29.77 in - North - - N/A   Mostly Cloudy
12:50 PM 30.2 °F - 10.4 °F 44% 29.77 in - North - - N/A   Mostly Cloudy
1:20 PM 30.2 °F - 10.4 °F 44% 29.77 in - North - - N/A   Mostly Cloudy
1:50 PM 30.2 °F - 10.4 °F 44% 29.77 in - North - - N/A   Mostly Cloudy
2:20 PM 30.2 °F - 10.4 °F 44% 29.77 in - North - - N/A   Mostly Cloudy
2:50 PM 28.4 °F - 12.2 °F 51% 29.80 in - North - - N/A   Mostly Cloudy
3:20 PM 28.4 °F - 14.0 °F 55% 29.80 in - North - - N/A   Mostly Cloudy
3:50 PM 28.4 °F - 12.2 °F 51% 29.80 in - North - - N/A   Mostly Cloudy
4:20 PM 26.6 °F - 14.0 °F 59% 29.83 in - North - - N/A   Mostly Cloudy
4:50 PM 26.6 °F - 14.0 °F 59% 29.83 in - North - - N/A   Mostly Cloudy
5:20 PM 26.6 °F - 14.0 °F 59% 29.86 in - North - - N/A   Mostly Cloudy
5:50 PM 24.8 °F - 14.0 °F 64% 29.86 in - North - - N/A   Mostly Cloudy
6:20 PM 24.8 °F 20.5 °F 14.0 °F 64% 29.86 in 6.2 mi Variable 3.5 mph - N/A   Mostly Cloudy
6:50 PM 24.8 °F 19.1 °F 14.0 °F 64% 29.86 in 6.2 mi SSW 4.6 mph - N/A   Mostly Cloudy
7:20 PM 23.0 °F - 14.0 °F 68% 29.86 in - North - - N/A   Mostly Cloudy
7:50 PM 21.2 °F - 14.0 °F 74% 29.86 in - North - - N/A   Mostly Cloudy
8:20 PM 19.4 °F - 12.2 °F 74% 29.89 in - North - - N/A   Mostly Cloudy
8:50 PM 15.8 °F - 10.4 °F 79% 29.89 in - North - - N/A   Mostly Cloudy
9:20 PM 12.2 °F - 8.6 °F 85% 29.89 in - North - - N/A   Mostly Cloudy
9:50 PM 14.0 °F - 8.6 °F 79% 29.92 in - North - - N/A   Scattered Clouds
10:20 PM 14.0 °F - 8.6 °F 79% 29.92 in - North - - N/A   Scattered Clouds
10:50 PM 14.0 °F - 6.8 °F 73% 29.92 in - North - - N/A   Scattered Clouds
11:20 PM 12.2 °F - 6.8 °F 79% 29.92 in 6.2 mi North - - N/A   Scattered Clouds
11:50 PM 10.4 °F - 6.8 °F 85% 29.92 in - North - - N/A   Scattered Clouds